Time,TemperatureF,DewpointF,PressureIn,WindDirection,WindDirectionDegrees,WindSpeedMPH,WindSpeedGustMPH,Humidity,HourlyPrecipIn,Conditions,Clouds,dailyrainin,SoftwareType,DateUTC
2013-02-23 00:04:00,47.7,48.0,29.70,NE,54,0.0,-999.0,100,-99.99,,,0.00,weatherlink.com 1.10,2013-02-22 22:04:00,
2013-02-23 00:19:00,47.4,47.0,29.70,NNE,30,0.0,-999.0,100,-99.99,,,0.00,weatherlink.com 1.10,2013-02-22 22:19:00,
2013-02-23 00:34:00,47.3,47.0,29.70,NNE,30,0.0,-999.0,100,-99.99,,,0.00,weatherlink.com 1.10,2013-02-22 22:34:00,
2013-02-23 00:49:00,47.1,47.0,29.71,NW,316,0.0,-999.0,100,-99.99,,,0.00,weatherlink.com 1.10,2013-02-22 22:49:00,
2013-02-23 01:04:00,47.1,47.0,29.71,NNW,344,0.0,-999.0,100,-99.99,,,0.00,weatherlink.com 1.10,2013-02-22 23:04:00,
2013-02-23 01:19:00,46.8,47.0,29.72,NNE,17,0.0,-999.0,100,-99.99,,,0.00,weatherlink.com 1.10,2013-02-22 23:19:00,
2013-02-23 01:34:00,46.7,47.0,29.72,NNW,343,0.0,-999.0,100,-99.99,,,0.00,weatherlink.com 1.10,2013-02-22 23:34:00,
2013-02-23 01:49:00,46.5,47.0,29.72,West,265,0.0,-999.0,100,-99.99,,,0.00,weatherlink.com 1.10,2013-02-22 23:49:00,
2013-02-23 02:04:00,46.4,46.0,29.72,WSW,258,0.0,-999.0,100,-99.99,,,0.00,weatherlink.com 1.10,2013-02-23 00:04:00,
2013-02-23 02:19:00,46.2,46.0,29.72,WNW,287,2.0,-999.0,100,-99.99,,,0.00,weatherlink.com 1.10,2013-02-23 00:19:00,
2013-02-23 02:34:00,46.0,46.0,29.73,WNW,296,4.0,-999.0,100,-99.99,,,0.00,weatherlink.com 1.10,2013-02-23 00:34:00,
2013-02-23 02:49:00,45.5,46.0,29.73,West,268,0.0,-999.0,100,-99.99,,,0.00,weatherlink.com 1.10,2013-02-23 00:49:00,
2013-02-23 03:04:00,45.4,45.0,29.73,West,277,2.0,-999.0,100,-99.99,,,0.00,weatherlink.com 1.10,2013-02-23 01:04:00,
2013-02-23 03:19:00,45.2,45.0,29.73,West,281,1.0,-999.0,100,-99.99,,,0.00,weatherlink.com 1.10,2013-02-23 01:19:00,
2013-02-23 03:34:00,45.2,45.0,29.73,West,271,0.0,-999.0,100,-99.99,,,0.00,weatherlink.com 1.10,2013-02-23 01:34:00,
2013-02-23 03:49:00,45.2,45.0,29.73,West,260,0.0,-999.0,100,-99.99,,,0.00,weatherlink.com 1.10,2013-02-23 01:49:00,
2013-02-23 04:04:00,45.4,45.0,29.74,WNW,288,0.0,-999.0,100,-99.99,,,0.00,weatherlink.com 1.10,2013-02-23 02:04:00,
2013-02-23 04:19:00,45.2,45.0,29.74,WSW,258,0.0,-999.0,100,-99.99,,,0.00,weatherlink.com 1.10,2013-02-23 02:19:00,
2013-02-23 04:34:00,45.2,45.0,29.75,West,267,0.0,-999.0,100,-99.99,,,0.00,weatherlink.com 1.10,2013-02-23 02:34:00,
2013-02-23 04:49:00,45.2,45.0,29.75,WSW,253,3.0,-999.0,100,-99.99,,,0.00,weatherlink.com 1.10,2013-02-23 02:49:00,
2013-02-23 05:04:00,45.1,45.0,29.76,West,260,1.0,-999.0,100,-99.99,,,0.00,weatherlink.com 1.10,2013-02-23 03:04:00,
2013-02-23 05:19:00,45.1,45.0,29.77,West,263,3.0,-999.0,100,-99.99,,,0.00,weatherlink.com 1.10,2013-02-23 03:19:00,
2013-02-23 05:35:00,45.1,45.0,29.77,West,281,2.0,-999.0,100,-99.99,,,0.00,weatherlink.com 1.10,2013-02-23 03:35:00,
2013-02-23 05:49:00,44.9,45.0,29.77,WNW,291,0.0,-999.0,100,-99.99,,,0.00,weatherlink.com 1.10,2013-02-23 03:49:00,
2013-02-23 06:04:00,44.9,45.0,29.78,West,281,0.0,-999.0,100,-99.99,,,0.00,weatherlink.com 1.10,2013-02-23 04:04:00,
2013-02-23 06:19:00,44.9,45.0,29.78,West,268,5.0,-999.0,100,-99.99,,,0.00,weatherlink.com 1.10,2013-02-23 04:19:00,
2013-02-23 06:34:00,44.8,45.0,29.79,West,261,0.0,-999.0,100,-99.99,,,0.00,weatherlink.com 1.10,2013-02-23 04:34:00,
2013-02-23 06:49:00,44.8,45.0,29.80,West,274,2.0,-999.0,100,-99.99,,,0.00,weatherlink.com 1.10,2013-02-23 04:49:00,
2013-02-23 07:04:00,44.8,45.0,29.81,North,0,0.0,-999.0,100,-99.99,,,0.00,weatherlink.com 1.10,2013-02-23 05:04:00,
2013-02-23 07:19:00,44.9,45.0,29.81,NW,309,0.0,-999.0,100,-99.99,,,0.00,weatherlink.com 1.10,2013-02-23 05:19:00,
2013-02-23 07:34:00,45.1,45.0,29.82,WSW,253,5.0,-999.0,100,-99.99,,,0.00,weatherlink.com 1.10,2013-02-23 05:34:00,
2013-02-23 07:49:00,45.2,45.0,29.82,West,268,2.0,-999.0,100,-99.99,,,0.00,weatherlink.com 1.10,2013-02-23 05:49:00,
2013-02-23 08:04:00,45.4,45.0,29.83,West,281,1.0,-999.0,100,-99.99,,,0.00,weatherlink.com 1.10,2013-02-23 06:04:00,
2013-02-23 08:35:00,45.5,46.0,29.85,West,281,6.0,-999.0,100,-99.99,,,0.00,weatherlink.com 1.10,2013-02-23 06:35:00,
2013-02-23 08:50:00,45.7,46.0,29.85,NNW,330,0.0,-999.0,100,-99.99,,,0.00,weatherlink.com 1.10,2013-02-23 06:50:00,
2013-02-23 09:05:00,46.0,46.0,29.86,West,271,0.0,-999.0,100,-99.99,,,0.00,weatherlink.com 1.10,2013-02-23 07:05:00,
2013-02-23 09:20:00,46.2,46.0,29.86,WNW,288,0.0,-999.0,100,-99.99,,,0.00,weatherlink.com 1.10,2013-02-23 07:20:00,
2013-02-23 09:35:00,46.7,47.0,29.86,West,277,0.0,-999.0,100,-99.99,,,0.00,weatherlink.com 1.10,2013-02-23 07:35:00,
2013-02-23 09:50:00,46.7,47.0,29.86,NNW,337,0.0,-999.0,100,-99.99,,,0.00,weatherlink.com 1.10,2013-02-23 07:50:00,
2013-02-23 10:05:00,46.8,47.0,29.87,WSW,237,0.0,-999.0,100,-99.99,,,0.00,weatherlink.com 1.10,2013-02-23 08:05:00,
2013-02-23 10:20:00,47.1,47.0,29.88,West,268,0.0,-999.0,100,-99.99,,,0.00,weatherlink.com 1.10,2013-02-23 08:20:00,
2013-02-23 10:35:00,47.3,47.0,29.88,West,271,0.0,-999.0,100,-99.99,,,0.00,weatherlink.com 1.10,2013-02-23 08:35:00,
2013-02-23 10:50:00,47.7,48.0,29.88,West,270,4.0,-999.0,100,-99.99,,,0.00,weatherlink.com 1.10,2013-02-23 08:50:00,
2013-02-23 11:05:00,48.5,49.0,29.89,WNW,282,5.0,-999.0,100,-99.99,,,0.00,weatherlink.com 1.10,2013-02-23 09:05:00,
2013-02-23 11:20:00,48.6,49.0,29.89,WNW,285,5.0,-999.0,100,-99.99,,,0.00,weatherlink.com 1.10,2013-02-23 09:20:00,
2013-02-23 11:35:00,48.9,49.0,29.89,South,176,0.0,-999.0,100,-99.99,,,0.00,weatherlink.com 1.10,2013-02-23 09:35:00,
2013-02-23 11:50:00,49.4,49.0,29.90,West,265,1.0,-999.0,100,-99.99,,,0.00,weatherlink.com 1.10,2013-02-23 09:50:00,
2013-02-23 12:05:00,49.8,50.0,29.90,West,280,0.0,-999.0,100,-99.99,,,0.00,weatherlink.com 1.10,2013-02-23 10:05:00,
2013-02-23 12:20:00,50.1,50.0,29.91,West,281,1.0,-999.0,100,-99.99,,,0.00,weatherlink.com 1.10,2013-02-23 10:20:00,
2013-02-23 12:35:00,50.7,51.0,29.90,NW,322,1.0,-999.0,100,-99.99,,,0.00,weatherlink.com 1.10,2013-02-23 10:35:00,
2013-02-23 12:50:00,51.4,51.0,29.90,WNW,284,5.0,-999.0,100,-99.99,,,0.00,weatherlink.com 1.10,2013-02-23 10:50:00,
2013-02-23 13:05:00,51.3,51.0,29.91,WNW,282,2.0,-999.0,100,-99.99,,,0.00,weatherlink.com 1.10,2013-02-23 11:05:00,
2013-02-23 13:20:00,51.6,52.0,29.91,SSW,212,2.0,-999.0,100,-99.99,,,0.00,weatherlink.com 1.10,2013-02-23 11:20:00,
2013-02-23 13:35:00,51.7,52.0,29.91,SE,137,0.0,-999.0,100,-99.99,,,0.00,weatherlink.com 1.10,2013-02-23 11:35:00,
2013-02-23 13:50:00,52.0,52.0,29.91,South,179,1.0,-999.0,100,-99.99,,,0.00,weatherlink.com 1.10,2013-02-23 11:50:00,
2013-02-23 14:05:00,52.3,52.0,29.92,South,189,0.0,-999.0,100,-99.99,,,0.00,weatherlink.com 1.10,2013-02-23 12:05:00,
2013-02-23 14:21:00,52.2,52.0,29.92,SW,219,0.0,-999.0,100,-99.99,,,0.00,weatherlink.com 1.10,2013-02-23 12:21:00,
2013-02-23 14:36:00,52.2,52.0,29.93,SSE,167,0.0,-999.0,100,-99.99,,,0.00,weatherlink.com 1.10,2013-02-23 12:36:00,
2013-02-23 14:51:00,52.0,52.0,29.93,South,174,0.0,-999.0,100,-99.99,,,0.00,weatherlink.com 1.10,2013-02-23 12:51:00,
2013-02-23 15:06:00,51.6,52.0,29.94,South,189,0.0,-999.0,100,-99.99,,,0.00,weatherlink.com 1.10,2013-02-23 13:06:00,
2013-02-23 15:21:00,51.6,52.0,29.94,SSW,202,0.0,-999.0,100,-99.99,,,0.00,weatherlink.com 1.10,2013-02-23 13:21:00,
2013-02-23 15:36:00,51.7,52.0,29.95,West,274,0.0,-999.0,100,-99.99,,,0.00,weatherlink.com 1.10,2013-02-23 13:36:00,
2013-02-23 15:51:00,51.1,51.0,29.95,ENE,59,2.0,-999.0,100,-99.99,,,0.00,weatherlink.com 1.10,2013-02-23 13:51:00,
2013-02-23 16:06:00,50.2,50.0,29.96,NE,44,0.0,-999.0,100,-99.99,,,0.00,weatherlink.com 1.10,2013-02-23 14:06:00,
2013-02-23 16:21:00,50.1,50.0,29.96,NNE,24,0.0,-999.0,100,-99.99,,,0.00,weatherlink.com 1.10,2013-02-23 14:21:00,
2013-02-23 16:36:00,49.6,50.0,29.97,NNE,31,5.0,-999.0,100,-99.99,,,0.00,weatherlink.com 1.10,2013-02-23 14:36:00,
2013-02-23 16:51:00,49.4,49.0,29.97,NE,34,1.0,-999.0,100,-99.99,,,0.00,weatherlink.com 1.10,2013-02-23 14:51:00,
2013-02-23 17:06:00,48.9,49.0,29.98,West,265,2.0,-999.0,100,-99.99,,,0.00,weatherlink.com 1.10,2013-02-23 15:06:00,
2013-02-23 17:21:00,48.8,49.0,29.99,West,268,2.0,-999.0,100,-99.99,,,0.00,weatherlink.com 1.10,2013-02-23 15:21:00,
2013-02-23 17:36:00,48.2,48.0,29.99,NNW,333,0.0,-999.0,100,-99.99,,,0.00,weatherlink.com 1.10,2013-02-23 15:36:00,
2013-02-23 17:51:00,47.9,48.0,30.00,NW,320,0.0,-999.0,100,-99.99,,,0.00,weatherlink.com 1.10,2013-02-23 15:51:00,
2013-02-23 18:06:00,47.7,48.0,30.01,NNW,330,0.0,-999.0,100,-99.99,,,0.00,weatherlink.com 1.10,2013-02-23 16:06:00,
2013-02-23 18:21:00,47.6,48.0,30.02,North,352,0.0,-999.0,100,-99.99,,,0.00,weatherlink.com 1.10,2013-02-23 16:21:00,
2013-02-23 18:36:00,47.6,48.0,30.03,NNW,344,0.0,-999.0,100,-99.99,,,0.00,weatherlink.com 1.10,2013-02-23 16:36:00,
2013-02-23 18:51:00,47.4,47.0,30.03,West,265,0.0,-999.0,100,-99.99,,,0.00,weatherlink.com 1.10,2013-02-23 16:51:00,
2013-02-23 19:06:00,47.4,47.0,30.04,WNW,291,0.0,-999.0,100,-99.99,,,0.00,weatherlink.com 1.10,2013-02-23 17:06:00,
2013-02-23 19:21:00,47.3,47.0,30.04,West,271,0.0,-999.0,100,-99.99,,,0.00,weatherlink.com 1.10,2013-02-23 17:21:00,
2013-02-23 19:36:00,47.1,47.0,30.05,North,0,0.0,-999.0,100,-99.99,,,0.00,weatherlink.com 1.10,2013-02-23 17:36:00,
2013-02-23 19:51:00,47.1,47.0,30.05,WNW,288,0.0,-999.0,100,-99.99,,,0.00,weatherlink.com 1.10,2013-02-23 17:51:00,
2013-02-23 20:06:00,47.1,47.0,30.05,West,280,0.0,-999.0,100,-99.99,,,0.00,weatherlink.com 1.10,2013-02-23 18:06:00,
2013-02-23 20:21:00,47.0,47.0,30.06,West,270,0.0,-999.0,100,-99.99,,,0.00,weatherlink.com 1.10,2013-02-23 18:21:00,
2013-02-23 20:36:00,47.0,47.0,30.07,WSW,258,1.0,-999.0,100,-99.99,,,0.00,weatherlink.com 1.10,2013-02-23 18:36:00,
2013-02-23 20:51:00,46.8,47.0,30.07,West,268,5.0,-999.0,100,-99.99,,,0.00,weatherlink.com 1.10,2013-02-23 18:51:00,
2013-02-23 21:06:00,46.5,47.0,30.08,West,278,3.0,-999.0,100,-99.99,,,0.00,weatherlink.com 1.10,2013-02-23 19:06:00,
2013-02-23 21:21:00,46.4,46.0,30.09,West,271,3.0,-999.0,100,-99.99,,,0.00,weatherlink.com 1.10,2013-02-23 19:21:00,
2013-02-23 21:36:00,46.1,46.0,30.09,West,271,5.0,-999.0,100,-99.99,,,0.00,weatherlink.com 1.10,2013-02-23 19:36:00,
2013-02-23 21:51:00,45.8,46.0,30.10,West,270,0.0,-999.0,100,-99.99,,,0.00,weatherlink.com 1.10,2013-02-23 19:51:00,
2013-02-23 22:06:00,45.5,46.0,30.10,West,260,0.0,-999.0,100,-99.99,,,0.00,weatherlink.com 1.10,2013-02-23 20:06:00,
2013-02-23 22:21:00,45.4,45.0,30.11,West,277,1.0,-999.0,100,-99.99,,,0.00,weatherlink.com 1.10,2013-02-23 20:21:00,
2013-02-23 22:36:00,45.4,45.0,30.11,NW,322,2.0,-999.0,100,-99.99,,,0.00,weatherlink.com 1.10,2013-02-23 20:36:00,
2013-02-23 22:51:00,45.2,45.0,30.11,NNW,330,0.0,-999.0,100,-99.99,,,0.00,weatherlink.com 1.10,2013-02-23 20:51:00,
2013-02-23 23:06:00,45.4,45.0,30.11,WSW,258,0.0,-999.0,100,-99.99,,,0.00,weatherlink.com 1.10,2013-02-23 21:06:00,
2013-02-23 23:21:00,45.5,46.0,30.11,WNW,289,3.0,-999.0,100,-99.99,,,0.00,weatherlink.com 1.10,2013-02-23 21:21:00,
2013-02-23 23:36:00,45.4,45.0,30.12,WNW,291,4.0,-999.0,100,-99.99,,,0.00,weatherlink.com 1.10,2013-02-23 21:36:00,
2013-02-23 23:51:00,45.2,45.0,30.12,North,0,0.0,-999.0,100,-99.99,,,0.00,weatherlink.com 1.10,2013-02-23 21:51:00,